Location: Barcelona
(41.3829°N, 2.1774°E)
Time: 20:53:50
(UTC+00:00)

ISS - Pass Details

Date: 08 July 2025
Orbit: 413 x 417 km, 51.6° (Epoch: 13 July)

Event Time Altitude Azimuth Distance (km) Brightness Sun altitude
Rises 04:02:25 0° 298° (WNW) 2,359 -0.2 -4.5°
Reaches altitude 10° 04:04:38 10° 289° (WNW) 1,493 -1.3 -4.2°
Maximum altitude 04:07:40 32° 224° (SW) 733 -3.0 -3.7°
Drops below altitude 10° 04:10:42 10° 158° (SSE) 1,486 -1.1 -3.2°
Sets 04:12:54 0° 149° (SSE) 2,345 0.0 -2.9°
